Location: Godiavel Galaoual
(15.2485°N, 12.6604°W)
Time: 13:29:48
(UTC+00:00)

Ariane H10+ - Pass Details

Date: 27 February 2020
Orbit: 238 x 8371 km, 6.8° (Epoch: 29 March)

Event Time Altitude Azimuth Distance (km) Brightness Sun altitude
Rises 19:50:24 0° 249° (WSW) 2,542 6.3 -13.4°
Reaches altitude 10° 19:54:23 10° 200° (SSW) 1,075 3.1 -14.4°
Maximum altitude 19:54:42 10° 191° (S) 1,036 2.9 -14.5°
Drops below altitude 10° 19:55:00 10° 182° (S) 1,022 2.8 -14.5°
Enters shadow 19:55:30 - 168° (SSE) 1,050 2.7 -14.7°
